TimeCDT,TemperatureF,Dew PointF,Humidity,Sea Level PressureIn,VisibilityMPH,Wind Direction,Wind SpeedMPH,Gust SpeedMPH,PrecipitationIn,Events,Conditions,WindDirDegrees,DateUTC
12:51 AM,70.0,64.0,81,29.68,10.0,South,16.1,-,N/A,,Clear,190,2012-10-17 05:51:00
1:51 AM,69.1,64.0,84,29.68,10.0,South,13.8,-,N/A,,Clear,190,2012-10-17 06:51:00
2:51 AM,69.1,64.0,84,29.68,10.0,SSW,11.5,-,N/A,,Clear,200,2012-10-17 07:51:00
3:51 AM,68.0,64.0,87,29.67,10.0,SSW,10.4,-,N/A,,Clear,200,2012-10-17 08:51:00
4:51 AM,66.9,64.0,90,29.65,10.0,SSW,11.5,-,N/A,,Clear,200,2012-10-17 09:51:00
5:51 AM,66.9,63.0,87,29.65,10.0,SSW,11.5,-,N/A,,Clear,200,2012-10-17 10:51:00
6:51 AM,66.0,63.0,90,29.66,10.0,SSW,10.4,-,N/A,,Clear,200,2012-10-17 11:51:00
7:51 AM,64.9,62.1,90,29.67,10.0,SSW,10.4,-,N/A,,Clear,200,2012-10-17 12:51:00
8:51 AM,68.0,63.0,84,29.68,10.0,SW,11.5,-,N/A,,Clear,220,2012-10-17 13:51:00
9:51 AM,72.0,64.0,76,29.70,10.0,SW,18.4,-,N/A,,Clear,230,2012-10-17 14:51:00
10:51 AM,78.1,60.1,54,29.67,10.0,WSW,18.4,-,N/A,,Clear,240,2012-10-17 15:51:00
11:51 AM,82.0,57.9,44,29.66,10.0,WSW,17.3,-,N/A,,Clear,250,2012-10-17 16:51:00
12:51 PM,86.0,52.0,31,29.68,10.0,NNW,16.1,-,N/A,,Clear,330,2012-10-17 17:51:00
1:51 PM,87.1,48.9,27,29.66,10.0,NW,15.0,-,N/A,,Clear,320,2012-10-17 18:51:00
2:51 PM,88.0,46.0,23,29.64,10.0,North,11.5,-,N/A,,Clear,350,2012-10-17 19:51:00
3:51 PM,88.0,44.1,22,29.63,10.0,NNW,10.4,-,N/A,,Clear,340,2012-10-17 20:51:00
4:51 PM,86.0,46.9,26,29.64,10.0,NNE,8.1,-,N/A,,Clear,30,2012-10-17 21:51:00
5:51 PM,82.9,52.0,34,29.66,10.0,NE,4.6,-,N/A,,Clear,50,2012-10-17 22:51:00
6:51 PM,77.0,48.9,37,29.69,10.0,NE,9.2,-,N/A,,Clear,50,2012-10-17 23:51:00
7:51 PM,71.1,50.0,47,29.71,10.0,ENE,4.6,-,N/A,,Clear,60,2012-10-18 00:51:00
8:51 PM,68.0,50.0,52,29.73,10.0,East,6.9,-,N/A,,Clear,80,2012-10-18 01:51:00
9:51 PM,64.9,48.0,54,29.75,10.0,SE,3.5,-,N/A,,Clear,130,2012-10-18 02:51:00
10:51 PM,64.9,48.0,54,29.75,10.0,Calm,Calm,-,N/A,,Clear,0,2012-10-18 03:51:00
11:51 PM,64.0,48.9,58,29.78,10.0,North,5.8,-,N/A,,Clear,360,2012-10-18 04:51:00